Snowfall_Accumulation
nan nan nan nan nan nan nan nan nan nan nan nan nan nan nan nan nan nan nan nan nan nan nan nan nan nan 0.0 0.0 0.0 0.0 nan nan 0.0 0.0 0.0 0.0 0.0 0.0 0.0 0.0 0.0 0.0 0.0 0.0 0.0 0.0 0.0
nan nan nan nan nan nan nan nan nan nan nan nan nan nan nan nan nan nan nan nan nan nan nan nan nan nan 0.0 0.0 0.0 0.0 0.0 0.0 0.0 0.0 0.0 0.0 0.0 0.0 0.0 0.0 0.0 0.0 0.0 0.0 0.0 0.0 0.0
nan nan nan nan nan nan nan nan nan nan nan nan nan nan nan nan nan nan nan nan nan nan nan nan nan 0.0 0.0 0.0 0.0 0.0 0.0 0.0 0.0 0.0 0.0 0.0 0.0 0.0 0.0 0.0 0.0 0.0 0.0 0.0 0.0 0.0 0.0
nan nan nan nan nan nan nan nan nan nan nan nan nan nan nan nan nan nan nan nan nan nan nan nan nan 0.0 0.0 0.0 0.0 0.0 0.0 0.0 0.0 0.0 0.0 0.0 0.0 0.0 0.0 0.0 0.0 0.0 0.0 0.1 0.0 0.0 0.0
nan nan nan nan nan nan nan nan nan nan nan nan nan nan nan nan nan nan nan nan nan nan nan nan 0.0 0.0 0.0 nan 0.0 0.0 0.0 0.0 0.0 0.0 0.0 0.0 0.0 0.0 0.0 0.4 1.4 0.1 0.9 0.0 0.0 0.0 0.0
nan nan nan nan nan nan nan nan nan nan nan nan nan nan nan nan nan nan nan nan nan nan 0.0 0.0 0.0 0.0 0.0 0.0 0.0 0.0 0.0 0.0 0.0 0.0 0.0 0.0 0.0 2.1 0.5 2.0 5.2 3.6 0.6 0.0 0.0 0.0 0.0
nan nan nan nan nan nan nan nan nan nan nan nan nan nan nan nan nan nan 0.0 0.0 0.0 0.0 0.0 0.0 0.0 0.0 0.0 0.0 0.0 0.0 0.0 0.0 0.0 0.0 0.0 0.0 0.9 3.4 0.6 0.0 0.0 0.0 0.1 0.1 0.0 0.0 0.0
nan nan nan nan nan nan nan nan nan nan nan nan nan nan nan nan nan nan 0.0 0.0 0.0 0.0 0.0 0.0 0.0 0.0 0.0 0.0 0.0 0.0 0.0 0.0 0.0 0.2 0.0 0.2 1.2 0.0 0.0 0.0 0.0 0.0 0.3 0.5 0.0 0.0 0.1
nan nan nan nan nan nan nan nan nan nan nan nan nan nan nan nan nan 0.0 0.0 0.0 0.0 0.0 0.1 0.0 0.0 0.0 0.0 0.0 0.0 0.0 0.0 0.0 0.4 0.1 0.0 0.0 0.0 0.0 0.0 0.1 0.6 0.4 1.1 0.2 0.0 0.4 0.1
nan nan nan nan nan nan nan nan nan nan nan nan nan nan nan nan nan 0.0 0.0 0.0 0.0 0.0 0.7 0.2 0.1 0.0 0.0 0.0 0.0 0.0 0.0 0.0 0.0 0.0 0.0 0.0 0.0 0.0 0.3 1.3 0.6 2.4 0.0 0.0 0.2 6.2 7.0
nan nan nan nan nan nan nan nan nan nan nan nan nan nan nan nan 0.0 0.0 0.0 0.0 0.0 0.0 11.0 0.0 0.5 0.0 0.0 0.1 0.0 0.0 0.0 0.0 0.0 0.0 0.0 0.1 0.0 0.0 0.7 1.4 0.7 3.4 0.0 0.1 0.1 2.0 4.2
nan nan nan nan nan nan nan nan nan nan nan nan nan nan nan 0.0 0.0 0.0 0.0 0.0 0.0 2.8 15.7 5.2 0.3 0.1 0.1 0.0 0.0 0.0 0.0 0.0 0.0 0.0 0.0 0.0 0.0 0.0 0.0 0.0 0.4 0.0 0.2 0.0 0.1 1.2 8.5
nan nan nan nan nan nan nan nan nan nan nan nan nan nan nan 0.0 0.0 0.0 0.0 0.0 4.2 10.0 0.0 0.6 0.9 0.0 0.2 0.3 0.1 0.0 0.0 0.8 2.6 4.2 1.0 0.0 0.0 0.0 0.0 0.0 0.0 0.4 1.0 7.3 4.9 9.1 4.5
nan nan nan nan nan nan nan nan nan nan nan nan nan nan nan 0.0 0.0 0.0 0.0 0.3 7.8 0.5 0.2 0.0 0.0 0.0 0.4 0.1 0.1 0.2 0.4 1.7 0.0 0.2 1.7 2.0 7.5 0.0 0.0 0.0 0.1 0.0 0.0 3.4 4.4 1.0 0.2
nan nan nan nan nan nan nan nan nan nan nan nan nan 0.0 0.0 0.0 0.0 0.0 0.1 5.8 3.9 0.4 0.1 0.0 0.0 0.1 0.1 0.1 0.7 0.1 0.1 1.1 0.5 0.1 3.0 1.2 0.4 0.0 0.0 0.0 0.0 0.0 0.1 0.0 1.0 0.0 0.9
nan nan nan nan nan nan nan nan nan nan nan nan 0.0 0.0 0.0 0.0 0.0 0.0 1.2 nan 0.2 0.0 0.0 0.0 0.3 0.1 1.0 1.0 0.4 0.8 0.1 0.1 0.5 0.1 0.0 0.4 1.7 0.0 0.0 0.0 0.0 0.0 0.0 1.2 1.4 3.5 0.3
nan nan nan nan nan nan nan nan nan nan nan nan 0.0 0.0 0.0 0.0 0.0 0.2 4.8 0.4 0.0 0.0 0.0 0.1 0.1 0.4 0.6 2.6 1.8 1.3 0.7 0.3 0.0 0.1 0.0 0.3 1.2 0.0 0.0 0.0 0.0 0.0 0.2 0.4 0.7 0.6 3.4
nan nan nan nan nan nan nan nan nan nan nan nan 0.0 0.4 0.0 0.0 1.2 1.0 2.5 0.1 nan 0.0 0.0 0.0 0.0 0.1 0.3 0.4 1.2 1.7 0.7 0.3 0.0 0.0 0.4 0.0 1.1 0.5 0.0 0.0 0.0 0.0 0.7 0.4 1.3 0.3 0.2
nan nan nan nan nan nan nan nan nan nan nan 0.0 0.4 0.0 0.0 0.0 6.6 3.1 0.1 0.0 0.0 0.0 0.0 0.0 0.1 0.0 0.0 0.5 1.9 0.3 0.1 0.0 0.0 0.1 1.2 0.5 0.6 0.8 1.0 0.8 0.0 0.2 0.2 0.0 0.0 0.4 0.5
nan nan nan nan nan nan nan nan nan nan nan 0.0 0.4 3.5 0.2 0.0 0.0 0.4 0.2 0.0 0.1 0.0 0.0 0.0 0.1 0.0 0.5 0.2 0.1 0.9 0.1 0.0 0.0 0.0 nan nan 0.8 0.3 0.5 0.1 0.0 0.1 0.0 0.0 0.2 1.1 0.1
nan nan nan nan nan nan nan nan nan nan nan 0.0 0.4 4.3 2.4 13.6 7.1 3.2 1.7 1.9 1.4 1.8 0.2 0.0 0.1 0.3 1.9 4.1 0.2 0.1 0.1 0.1 0.0 nan 0.1 0.3 1.5 0.0 0.0 0.0 0.0 0.0 0.0 0.0 0.0 0.0 1.0
nan nan nan nan nan nan nan nan nan nan nan 0.0 0.7 2.0 1.4 4.8 3.1 2.5 3.3 6.7 2.6 1.3 1.8 2.3 2.4 0.7 1.4 6.6 1.8 3.6 1.3 0.2 0.3 0.0 0.2 0.6 4.0 0.1 0.2 0.0 0.0 0.0 0.0 0.0 0.0 0.0 0.0
nan nan nan nan nan nan nan nan nan nan nan 0.0 0.0 0.0 0.4 nan 3.6 5.7 4.3 3.1 1.8 0.3 0.1 0.2 0.3 1.4 1.4 0.2 0.3 0.0 0.0 0.1 0.1 1.5 1.2 4.1 6.0 6.0 4.7 0.0 0.1 1.2 0.0 0.0 0.0 0.4 0.5
nan nan nan nan nan nan nan nan nan nan nan 0.0 0.0 0.0 1.7 6.7 3.1 4.6 1.8 0.2 0.3 0.1 4.4 0.1 0.1 1.2 0.1 0.0 0.0 0.1 0.2 0.1 0.2 0.1 0.2 3.8 5.7 6.4 9.7 2.5 23.2 0.0 0.0 0.0 0.1 1.1 0.7
nan nan nan nan nan nan nan nan nan nan nan 0.0 0.0 0.0 1.3 10.1 1.4 1.3 2.0 1.2 0.2 0.1 0.7 0.2 0.0 0.1 0.0 0.2 3.1 3.7 2.5 1.8 1.2 0.5 1.0 1.4 5.8 22.9 17.8 5.1 0.9 0.2 0.2 0.5 1.2 1.1 1.3
nan nan nan nan nan nan nan nan nan nan nan 0.0 0.0 0.0 0.0 5.7 1.9 0.4 1.7 1.4 4.7 5.8 4.6 0.3 0.0 0.0 0.0 1.1 6.0 12.6 4.1 2.0 2.6 0.9 0.5 2.2 4.5 18.3 19.9 18.7 10.9 0.4 0.9 0.4 0.1 3.1 0.9
nan nan nan nan nan nan nan nan nan nan nan 0.0 0.0 0.0 0.1 7.2 0.4 0.2 2.7 5.3 2.7 5.1 6.6 1.7 1.2 0.9 0.2 5.4 13.7 9.8 4.4 1.9 3.9 2.2 2.4 4.3 8.5 22.0 14.7 25.9 9.4 0.6 0.3 0.1 4.7 1.8 0.5
nan nan nan nan nan nan nan nan nan nan nan 0.0 0.0 0.0 0.1 1.8 0.3 0.1 0.1 2.9 3.2 3.8 8.7 4.9 10.0 6.6 7.5 14.4 9.8 4.9 6.5 2.6 3.4 3.4 3.1 4.1 6.7 6.8 9.4 22.8 19.6 0.5 0.1 1.5 2.9 1.6 1.4
nan nan nan nan nan nan nan nan nan nan nan nan 0.0 0.0 0.0 0.7 1.0 0.0 0.0 0.0 0.1 0.4 5.0 8.3 4.8 4.7 4.2 8.8 8.8 5.2 5.2 4.3 2.3 4.6 1.3 7.1 4.2 5.0 2.9 3.1 1.7 2.0 1.8 2.4 1.9 1.3 0.8
Water_Equivalent
nan nan nan nan nan nan nan nan nan nan nan nan nan nan nan nan nan nan nan nan nan nan nan nan nan nan 0.00 0.00 0.00 0.00 nan nan 0.00 0.00 0.00 0.00 0.00 0.00 0.00 0.00 0.00 0.00 0.00 0.00 0.00 0.00 0.00
nan nan nan nan nan nan nan nan nan nan nan nan nan nan nan nan nan nan nan nan nan nan nan nan nan nan 0.00 0.01 0.00 0.00 0.00 0.00 0.00 0.00 0.00 0.00 0.00 0.00 0.00 0.00 0.00 0.00 0.00 0.00 0.00 0.00 0.00
nan nan nan nan nan nan nan nan nan nan nan nan nan nan nan nan nan nan nan nan nan nan nan nan nan 0.00 0.00 0.00 0.00 0.00 0.00 0.00 0.00 0.00 0.00 0.00 0.00 0.00 0.00 0.00 0.00 0.00 0.00 0.00 0.00 0.00 0.00
nan nan nan nan nan nan nan nan nan nan nan nan nan nan nan nan nan nan nan nan nan nan nan nan nan 0.00 0.00 0.00 0.00 0.00 0.00 0.00 0.00 0.00 0.00 0.00 0.00 0.00 0.00 0.00 0.00 0.00 0.00 0.02 0.00 0.00 0.00
nan nan nan nan nan nan nan nan nan nan nan nan nan nan nan nan nan nan nan nan nan nan nan nan 0.00 0.00 0.00 nan 0.00 0.00 0.00 0.00 0.00 0.00 0.00 0.00 0.00 0.00 0.00 0.11 0.25 0.03 0.20 0.01 0.00 0.00 0.00
nan nan nan nan nan nan nan nan nan nan nan nan nan nan nan nan nan nan nan nan nan nan 0.00 0.00 0.00 0.00 0.00 0.00 0.00 0.00 0.00 0.00 0.00 0.00 0.00 0.00 0.00 0.70 0.18 0.51 0.87 1.06 0.19 0.00 0.00 0.00 0.00
nan nan nan nan nan nan nan nan nan nan nan nan nan nan nan nan nan nan 0.00 0.00 0.00 0.00 0.00 0.00 0.00 0.00 0.00 0.00 0.00 0.00 0.00 0.00 0.00 0.00 0.01 0.00 0.28 0.92 0.17 0.01 0.01 0.00 0.02 0.02 0.00 0.00 0.01
nan nan nan nan nan nan nan nan nan nan nan nan nan nan nan nan nan nan 0.00 0.00 0.00 0.00 0.02 0.00 0.00 0.00 0.00 0.00 0.00 0.00 0.00 0.00 0.00 0.08 0.00 0.08 0.33 0.00 0.00 0.00 0.00 0.01 0.06 0.10 0.00 0.00 0.01
nan nan nan nan nan nan nan nan nan nan nan nan nan nan nan nan nan 0.00 0.00 0.00 0.00 0.00 0.03 0.00 0.00 0.00 0.00 0.00 0.00 0.00 0.00 0.00 0.17 0.04 0.00 0.01 0.00 0.00 0.00 0.03 0.10 0.07 0.25 0.03 0.00 0.10 0.02
nan nan nan nan nan nan nan nan nan nan nan nan nan nan nan nan nan 0.00 0.00 0.00 0.00 0.00 0.21 0.04 0.04 0.01 0.00 0.00 0.01 0.00 0.00 0.00 0.00 0.00 0.00 0.00 0.00 0.00 0.06 0.27 0.12 0.35 0.00 0.01 0.04 0.92 1.02
nan nan nan nan nan nan nan nan nan nan nan nan nan nan nan nan 0.00 0.00 0.00 0.00 0.00 0.00 2.23 0.01 0.11 0.00 0.00 0.02 0.00 0.00 0.00 0.00 0.01 0.00 0.00 0.03 0.00 0.01 0.15 0.30 0.20 0.77 0.00 0.01 0.02 0.33 0.62
nan nan nan nan nan nan nan nan nan nan nan nan nan nan nan 0.00 0.00 0.00 0.00 0.00 0.00 0.69 3.53 1.65 0.06 0.02 0.02 0.00 0.00 0.00 0.00 0.00 0.00 0.00 0.00 0.00 0.00 0.00 0.00 0.00 0.10 0.00 0.04 0.00 0.01 0.20 1.30
nan nan nan nan nan nan nan nan nan nan nan nan nan nan nan 0.00 0.00 0.00 0.00 0.00 1.18 1.87 0.00 0.17 0.18 0.01 0.06 0.08 0.02 0.00 0.01 0.19 0.66 0.94 0.27 0.00 0.00 0.00 0.00 0.00 0.00 0.09 0.20 1.22 0.88 1.67 0.69
nan nan nan nan nan nan nan nan nan nan nan nan nan nan nan 0.00 0.00 0.00 0.00 0.13 1.61 0.11 0.04 0.00 0.00 0.00 0.09 0.02 0.04 0.04 0.08 0.47 0.01 0.06 0.37 0.48 1.65 0.00 0.00 0.00 0.01 0.00 0.01 0.54 0.75 0.22 0.05
nan nan nan nan nan nan nan nan nan nan nan nan nan 0.00 0.00 0.00 0.00 0.00 0.04 1.29 0.77 0.08 0.02 0.01 0.00 0.02 0.02 0.03 0.17 0.02 0.03 0.27 0.16 0.03 0.65 0.23 0.08 0.00 0.00 0.00 0.00 0.00 0.02 0.00 0.13 0.00 0.13
nan nan nan nan nan nan nan nan nan nan nan nan 0.00 0.00 0.00 0.00 0.00 0.00 0.40 nan 0.05 0.00 0.00 0.00 0.07 0.02 0.18 0.20 0.10 0.19 0.03 0.04 0.12 0.02 0.00 0.08 0.23 0.00 0.00 0.00 0.00 0.00 0.00 0.20 0.22 0.62 0.04
nan nan nan nan nan nan nan nan nan nan nan nan 0.00 0.00 0.00 0.00 0.00 0.07 1.11 0.10 0.00 0.00 0.00 0.02 0.03 0.09 0.13 0.49 0.40 0.28 0.16 0.08 0.02 0.02 0.00 0.06 0.18 0.01 0.00 0.00 0.00 0.00 0.03 0.07 0.10 0.13 0.47
nan nan nan nan nan nan nan nan nan nan nan nan 0.00 0.15 0.00 0.00 0.40 0.33 0.62 0.01 nan 0.00 0.00 0.00 0.00 0.02 0.06 0.09 0.22 0.42 0.16 0.08 0.00 0.01 0.07 0.01 0.16 0.08 0.00 0.00 0.00 0.00 0.12 0.06 0.18 0.04 0.06
nan nan nan nan nan nan nan nan nan nan nan 0.00 0.15 0.01 0.00 0.00 1.77 0.83 0.03 0.00 0.00 0.00 0.00 0.00 0.02 0.01 0.00 0.07 0.29 0.05 0.02 0.00 0.00 0.04 0.26 0.09 0.10 0.14 0.21 0.16 0.00 0.02 0.03 0.00 0.00 0.06 0.05
nan nan nan nan nan nan nan nan nan nan nan 0.00 0.15 1.14 0.07 0.00 0.00 0.12 0.04 0.01 0.02 0.00 0.00 0.01 0.02 0.00 0.08 0.04 0.03 0.12 0.02 0.00 0.00 0.00 nan nan 0.11 0.04 0.05 0.02 0.00 0.01 0.00 0.00 0.03 0.14 0.01
nan nan nan nan nan nan nan nan nan nan nan 0.00 0.17 1.33 0.87 3.82 2.02 0.97 0.38 0.62 0.44 0.48 0.03 0.00 0.02 0.04 0.27 0.68 0.03 0.02 0.02 0.02 0.00 nan 0.02 0.06 0.23 0.00 0.00 0.00 0.00 0.00 0.00 0.00 0.00 0.00 0.11
nan nan nan nan nan nan nan nan nan nan nan 0.00 0.26 0.62 0.42 1.15 0.89 0.67 1.01 1.84 0.72 0.34 0.48 0.58 0.47 0.18 0.35 1.31 0.51 0.69 0.19 0.04 0.06 0.00 0.04 0.13 0.94 0.02 0.03 0.00 0.00 0.00 0.00 0.00 0.00 0.00 0.00
nan nan nan nan nan nan nan nan nan nan nan 0.00 0.00 0.00 0.17 nan 0.93 1.30 1.26 0.79 0.44 0.06 0.03 0.03 0.05 0.30 0.32 0.05 0.06 0.01 0.01 0.01 0.02 0.27 0.22 0.79 1.35 1.33 0.88 0.00 0.04 0.22 0.00 0.00 0.01 0.05 0.06
nan nan nan nan nan nan nan nan nan nan nan 0.00 0.00 0.00 0.56 1.57 0.71 1.07 0.48 0.06 0.06 0.03 0.89 0.02 0.02 0.21 0.01 0.01 0.01 0.02 0.03 0.02 0.03 0.01 0.04 0.73 1.00 1.37 1.81 0.51 2.86 0.01 0.00 0.01 0.01 0.14 0.10
nan nan nan nan nan nan nan nan nan nan nan 0.00 0.00 0.00 0.50 2.25 0.38 0.31 0.46 0.29 0.05 0.02 0.18 0.04 0.01 0.02 0.00 0.04 0.70 0.72 0.55 0.36 0.23 0.07 0.15 0.21 1.01 3.38 2.60 0.83 0.16 0.03 0.03 0.07 0.15 0.14 0.18
nan nan nan nan nan nan nan nan nan nan nan 0.00 0.00 0.00 0.01 1.58 0.49 0.11 0.42 0.37 0.97 1.19 1.08 0.07 0.00 0.00 0.01 0.24 1.35 1.78 0.59 0.29 0.42 0.17 0.08 0.30 0.62 3.19 3.11 2.68 1.21 0.06 0.11 0.04 0.02 0.38 0.11
nan nan nan nan nan nan nan nan nan nan nan 0.00 0.00 0.00 0.06 1.98 0.13 0.07 0.59 1.02 0.58 0.95 1.21 0.42 0.27 0.20 0.03 1.26 2.21 1.41 0.70 0.30 0.52 0.23 0.28 0.56 1.21 3.00 2.12 3.47 1.45 0.08 0.04 0.02 0.58 0.19 0.08
nan nan nan nan nan nan nan nan nan nan nan 0.00 0.00 0.00 0.02 0.66 0.13 0.03 0.03 0.58 0.59 0.75 1.37 0.93 1.47 1.26 1.49 2.59 1.57 0.82 0.98 0.40 0.44 0.48 0.35 0.42 0.70 0.86 1.26 2.97 2.31 0.04 0.01 0.16 0.35 0.21 0.16
nan nan nan nan nan nan nan nan nan nan nan nan 0.00 0.00 0.00 0.26 0.32 0.00 0.00 0.00 0.02 0.15 1.11 1.37 0.88 0.78 0.82 1.51 1.55 0.88 0.86 0.70 0.29 0.58 0.16 0.79 0.44 0.52 0.29 0.35 0.18 0.24 0.19 0.26 0.20 0.13 0.07
SL_Ratio
nan nan nan nan nan nan nan nan nan nan nan nan nan nan nan nan nan nan nan nan nan nan nan nan nan nan nan nan nan nan nan nan nan nan nan nan nan nan nan nan nan nan nan nan nan nan nan
nan nan nan nan nan nan nan nan nan nan nan nan nan nan nan nan nan nan nan nan nan nan nan nan nan nan nan 3.3 nan nan nan nan nan nan nan nan nan nan nan nan nan nan nan nan nan nan nan
nan nan nan nan nan nan nan nan nan nan nan nan nan nan nan nan nan nan nan nan nan nan nan nan nan nan nan nan nan nan nan nan nan nan nan nan nan nan nan nan nan nan nan nan nan nan nan
nan nan nan nan nan nan nan nan nan nan nan nan nan nan nan nan nan nan nan nan nan nan nan nan nan nan nan nan nan nan nan nan nan nan nan nan nan nan nan nan nan nan 5.0 6.6 nan nan nan
nan nan nan nan nan nan nan nan nan nan nan nan nan nan nan nan nan nan nan nan nan nan nan nan nan nan nan nan nan nan nan nan nan nan nan nan nan 2.5 nan 3.7 5.4 3.3 4.6 4.5 nan nan nan
nan nan nan nan nan nan nan nan nan nan nan nan nan nan nan nan nan nan nan nan nan nan nan nan nan nan nan nan nan nan nan nan nan nan nan nan nan 2.9 2.9 4.0 5.9 3.4 3.3 nan 5.0 nan nan
nan nan nan nan nan nan nan nan nan nan nan nan nan nan nan nan nan nan nan nan nan nan nan nan nan nan nan nan nan nan nan nan nan nan 2.5 nan 3.1 3.7 3.5 2.8 2.6 nan 4.9 6.3 nan nan 4.4
nan nan nan nan nan nan nan nan nan nan nan nan nan nan nan nan nan nan nan nan nan nan 2.7 nan nan nan nan nan nan nan nan 2.5 2.5 3.0 2.5 3.2 3.6 2.5 nan nan 7.5 5.8 5.7 4.8 nan nan 4.5
nan nan nan nan nan nan nan nan nan nan nan nan nan nan nan nan nan nan nan nan nan nan 2.8 nan nan nan nan nan nan nan nan nan 2.6 3.0 nan 3.6 2.5 nan 5.0 4.5 5.8 5.8 4.2 5.5 5.0 3.4 4.0
nan nan nan nan nan nan nan nan nan nan nan nan nan nan nan nan nan nan nan nan nan nan 3.5 4.5 3.6 3.1 nan nan 2.6 nan nan 2.5 2.5 5.0 nan 5.0 nan nan 4.6 4.9 5.1 7.0 5.0 5.5 5.9 6.8 6.9
nan nan nan nan nan nan nan nan nan nan nan nan nan nan nan nan nan nan nan nan nan nan 4.9 3.9 4.5 nan nan 2.8 nan 0.0 nan nan 2.3 nan 7.5 3.8 nan 4.3 4.8 4.8 3.5 4.5 nan 5.0 5.3 6.0 6.7
nan nan nan nan nan nan nan nan nan nan nan nan nan nan nan nan nan nan nan nan nan 4.0 4.4 3.2 4.3 3.3 3.4 3.0 3.0 nan nan nan nan 5.0 5.0 nan nan nan nan nan 4.1 nan 4.5 5.0 4.3 6.1 6.5
nan nan nan nan nan nan nan nan nan nan nan nan nan nan nan nan nan nan nan nan 3.6 5.3 2.5 3.3 4.9 3.5 4.0 4.2 3.0 2.5 2.8 3.9 4.0 4.5 3.7 nan nan nan nan nan nan 3.8 5.1 5.9 5.5 5.4 6.5
nan nan nan nan nan nan nan nan nan nan nan nan nan nan nan nan nan nan nan 2.5 4.9 4.6 4.4 nan 3.8 5.0 4.3 3.5 3.6 5.7 4.7 3.6 2.7 3.6 4.5 4.2 4.5 nan nan 5.0 6.7 nan 6.5 6.3 5.9 4.7 3.1
nan nan nan nan nan nan nan nan nan nan nan nan nan nan nan nan nan nan 2.5 4.5 5.1 5.0 4.1 3.3 3.3 4.0 3.8 3.8 4.0 2.9 3.9 4.1 3.3 2.9 4.6 5.3 4.8 nan nan nan nan 7.5 4.2 nan 7.2 3.8 6.5
nan nan nan nan nan nan nan nan nan nan nan nan nan nan nan nan nan nan 3.1 nan 3.8 nan 5.0 2.5 4.8 4.4 5.4 4.9 4.3 4.0 4.4 3.6 4.1 2.8 3.3 5.4 7.5 nan nan 5.0 nan nan nan 5.9 6.5 5.7 8.0
nan nan nan nan nan nan nan nan nan nan nan nan nan nan nan nan nan 2.5 4.3 3.9 nan nan nan 3.9 4.4 4.7 5.0 5.3 4.4 4.4 4.3 4.2 2.6 3.4 7.5 5.5 6.7 4.4 nan nan 6.7 6.3 7.0 6.0 6.9 5.0 7.2
nan nan nan nan nan nan nan nan nan nan nan nan nan 2.6 nan nan 3.1 3.2 4.0 4.0 nan nan nan nan 4.0 3.8 4.6 4.9 5.6 4.1 4.3 4.6 nan 2.7 5.0 6.3 6.7 5.7 nan 5.0 nan nan 5.8 6.2 7.0 7.4 3.2
nan nan nan nan nan nan nan nan nan nan nan nan 2.5 2.5 nan nan 3.7 3.7 3.3 5.0 nan nan nan 4.2 5.0 4.0 10.0 6.5 6.6 5.7 3.5 nan nan 2.8 4.7 5.5 6.4 5.6 5.0 4.9 5.0 7.5 7.0 5.0 5.7 6.5 9.3
nan nan nan nan nan nan nan nan nan nan nan nan 2.5 3.0 2.5 2.5 2.5 3.5 4.1 3.7 5.0 nan nan 6.0 5.2 nan 6.3 4.3 3.5 7.3 6.9 6.0 nan nan nan nan 7.2 8.3 9.4 7.0 nan 7.5 nan nan 6.3 7.8 8.0
nan nan nan nan nan nan nan nan nan nan nan nan 2.5 3.3 2.8 3.5 3.5 3.3 4.5 3.1 3.1 3.7 5.6 5.0 5.2 6.9 7.0 6.1 5.6 7.3 7.1 7.0 nan nan 4.1 5.5 6.5 7.0 10.0 nan 5.0 nan nan nan 5.0 nan 9.2
nan nan nan nan nan nan nan nan nan nan nan nan 2.8 3.2 3.4 4.2 3.5 3.8 3.3 3.6 3.5 3.9 3.7 4.0 5.0 4.1 3.9 5.0 3.6 5.3 6.6 6.5 6.1 4.3 4.1 4.5 4.3 4.7 5.5 nan nan nan nan nan nan nan nan
nan nan nan nan nan nan nan nan nan nan nan nan nan nan 2.5 nan 3.9 4.4 3.4 3.9 4.2 5.3 3.6 5.6 4.8 4.8 4.5 5.3 5.6 6.0 4.5 5.5 5.4 5.7 5.3 5.1 4.4 4.5 5.3 5.0 3.6 5.2 nan 10.0 6.9 7.8 7.8
nan nan nan nan nan nan nan nan nan nan nan nan nan nan 3.1 4.3 4.4 4.3 3.8 4.0 4.5 4.6 5.0 4.2 4.1 5.7 4.5 3.5 3.8 4.8 5.5 5.8 6.0 5.3 5.0 5.3 5.7 4.7 5.4 4.9 8.1 4.3 7.0 7.5 8.3 7.3 6.8
nan nan nan nan nan nan nan nan nan nan nan nan nan nan 2.6 4.5 3.7 4.3 4.3 4.3 4.0 3.5 3.6 4.3 4.4 4.2 nan 4.5 4.4 5.1 4.5 5.0 5.2 6.3 6.9 6.7 5.7 6.8 6.9 6.2 5.6 5.2 7.7 7.8 8.0 8.0 7.0
nan nan nan nan nan nan nan nan nan nan nan nan nan nan 2.6 3.6 3.8 3.4 4.1 3.8 4.9 4.9 4.3 4.3 6.0 nan 3.9 4.5 4.5 7.0 6.9 6.8 6.1 5.5 6.5 7.2 7.2 5.7 6.4 7.0 9.0 7.0 8.0 9.1 8.8 8.2 8.1
nan nan nan nan nan nan nan nan nan nan nan nan nan nan 2.5 3.7 2.9 3.6 4.7 5.2 4.6 5.3 5.5 4.1 4.4 4.5 5.8 4.3 6.2 6.9 6.3 6.4 7.4 9.3 8.7 7.6 7.0 7.4 6.9 7.5 6.5 8.0 8.9 3.9 8.2 9.1 6.8
nan nan nan nan nan nan nan nan nan nan nan nan nan nan 2.5 2.7 2.7 2.8 2.6 4.9 5.3 5.1 6.4 5.2 6.8 5.2 5.1 5.6 6.2 6.0 6.6 6.5 7.7 7.2 9.0 9.8 9.6 7.9 7.5 7.6 8.5 11.7 7.7 9.1 8.2 7.3 8.3
nan nan nan nan nan nan nan nan nan nan nan nan nan nan nan 2.5 3.3 nan 5.0 1.7 2.7 2.8 4.5 6.1 5.4 6.1 5.2 5.8 5.7 5.9 6.0 6.2 8.0 8.0 8.1 8.9 9.5 9.7 9.7 8.9 9.6 8.3 9.4 9.3 9.1 9.7 10.9